STARLINK-5777, 56027

Orbit data source: Space-Track

STARLINK-5777, 56027 is a payload satellite owned by SpaceX/Seattle (US) in LEO that was launched on Fri, 24 Mar 2023 UTC via an FALCON 9 launch vehicle from the Air Force Eastern Test Range (AFETR). Payload-class satellites include a variety of spacecraft equipped with specific instruments for various scientific and technological missions. These include communications satellites like Starlink; space stations such as the ISS; scientific satellites like the Hubble; Earth observation satellites from companies like Planet Labs, Umbra, and HawkEye 360; GPS; miniature CubeSats for education and research; and military/defense satellites.

Loading next visibility...
Identifier
56027, 2023-042AT
Orbit
LEO
Country
Flag of USUS
Related business
Manufacturer
SpaceX/Seattle
Mission
Operational Commercial Communications
Bus & Motor
STARLINK, Unknown motor
Mass
305 kg wet, ~290 kg dry
Launch date (UTC)
2023-03-24 (3 years ago)
Launch vehicle
FALCON 9
Launch site
Air Force Eastern Test Range (AFETR)
Object type
Payload
Rocket body
Debris
Shape & HBR
Box + 1 Pan, 10.1 m
Radar Cross Section
11.087 m², Large (>1 m²)

Expand to show TLE details & history
Last TLE update: 2 days ago

TLE from 2 days ago
0 STARLINK-5777
1 56027U 23042AT  26171.30417970  .00000271  00000-0  19366-4 0  9998
2 56027  43.0022 185.3224 0001730 268.5775  91.4878 15.27579218178739
Epoch: 2026-06-20T07:18Z
TLE epoch observation values (Epoch: 2026-06-20T07:18:01.126Z)
Latitude
-0.00003°
Longitude
167.29695°
Altitude
482.858 km
Speed
7.626 km/s
True Right ascension
12h 21m 17s
True Declination
0° 00' 00"
Sunlit
Object was in daylight at epoch
Visualization orbit readout
Latitude
Unknown
Longitude
Unknown
Altitude
Unknown
Speed
Unknown
Apparent Right ascension
Unknown
Apparent Declination
Unknown
Sunlit
N/A
Visualization observer readout
Local Sidereal Time
21:29:40
Azimuth
Unknown
Elevation
Unknown
Doppler factor
Unknown
Orbital elements
Apogee altitude
486.184 km
Perigee altitude
483.809 km
Semi-major axis
6,863.133 km
Eccentricity
0.00017
Inclination
43.0022°
RAAN
185.3224°
Arg. of periapsis
268.5775°
True anomaly
91.50762°
Mean anomaly
91.4878°
Eccentric anomaly
91.49771°
Mean motion
3.81733 °/min
Orbital period
94.31 mins
BSTAR
0.000019366
Loading maneuver chart data...
Computing Atmospheric mass density...
Loading historical data...
Loading historical data...
Loading historical data...
Loading historical data...
Loading historical data...
Loading historical data...
Loading historical data...

Documentation

Showing up to 5 results
|